| time (UTC) | temp F | wind direction | speed MPH | gust MPH | rain 1hr in | rain 24hr in | rain mn in | humidity % | barometer mb |
| 20260508125057 | 53 | 335 | 9.0 | 16.0 | 0.00 | 0.01 | 0.00 | 36 | 1025.3 |
| 20260508121056 | 53 | 337 | 8.0 | 15.0 | 0.00 | 0.01 | 0.00 | 33 | 1025.2 |
| 20260508115055 | 52 | 329 | 8.0 | 15.0 | 0.00 | 0.01 | 0.00 | 34 | 1025.1 |
| 20260508113057 | 51 | 331 | 10.0 | 17.0 | 0.00 | 0.01 | 0.00 | 36 | 1025.1 |
| 20260508105056 | 51 | 312 | 11.0 | 20.0 | 0.00 | 0.01 | 0.00 | 37 | 1024.8 |
| 20260508103056 | 50 | 321 | 11.0 | 21.0 | 0.00 | 0.01 | 0.00 | 40 | 1024.6 |
| 20260508101056 | 50 | 318 | 10.0 | 18.0 | 0.00 | 0.01 | 0.00 | 44 | 1024.7 |
| 20260508095056 | 49 | 322 | 9.0 | 15.0 | 0.00 | 0.01 | 0.00 | 44 | 1024.6 |
| 20260508093055 | 49 | 315 | 11.0 | 17.0 | 0.00 | 0.01 | 0.00 | 47 | 1024.5 |
| 20260508091056 | 48 | 325 | 9.0 | 17.0 | 0.00 | 0.01 | 0.00 | 45 | 1024.4 |
| 20260508084727 | 47 | 314 | 10.0 | 16.0 | 0.00 | 0.01 | 0.00 | 47 | 1024.4 |
| 20260508081056 | 45 | 320 | 7.0 | 13.0 | 0.00 | 0.01 | 0.00 | 59 | 1024.0 |
| 20260508073055 | 43 | 317 | 10.0 | 16.0 | 0.00 | 0.01 | 0.00 | 62 | 1023.9 |
| 20260508071056 | 43 | 315 | 9.0 | 15.0 | 0.00 | 0.01 | 0.00 | 67 | 1023.6 |
| 20260508064727 | 42 | 315 | 9.0 | 15.0 | 0.00 | 0.01 | 0.00 | 70 | 1023.3 |
| 20260508061056 | 40 | 317 | 9.0 | 14.0 | 0.00 | 0.01 | 0.00 | 81 | 1023.0 |
| 20260508052726 | 38 | 330 | 7.0 | 13.0 | 0.00 | 0.01 | 0.00 | 83 | 1022.5 |
| 20260508045055 | 38 | 325 | 10.0 | 14.0 | 0.00 | 0.01 | 0.00 | 85 | 1021.9 |
| 20260508041055 | 38 | 321 | 10.0 | 16.0 | 0.00 | 0.01 | 0.00 | 85 | 1021.5 |
| 20260508033055 | 37 | 327 | 8.0 | 13.0 | 0.00 | 0.01 | 0.00 | 90 | 1021.1 |
| 20260508030726 | 37 | 328 | 10.0 | 16.0 | 0.00 | 0.01 | 0.00 | 90 | 1020.8 |
| 20260508023054 | 37 | 325 | 11.0 | 19.0 | 0.00 | 0.01 | 0.00 | 90 | 1020.0 |
| 20260508021054 | 36 | 319 | 11.0 | 19.0 | 0.00 | 0.01 | 0.00 | 91 | 1019.8 |
| 20260508014725 | 36 | 319 | 9.0 | 19.0 | 0.00 | 0.01 | 0.00 | 90 | 1019.5 |
| 20260508012725 | 36 | 294 | 6.0 | 15.0 | 0.00 | 0.01 | 0.00 | 90 | 1019.3 |
| 20260508010725 | 36 | 305 | 6.0 | 10.0 | 0.00 | 0.01 | 0.00 | 91 | 1019.0 |
| 20260508004725 | 36 | 290 | 6.0 | 9.0 | 0.00 | 0.01 | 0.00 | 90 | 1018.9 |
| 20260508000725 | 37 | 289 | 5.0 | 10.0 | 0.00 | 0.01 | 0.00 | 87 | 1018.7 |
| 20260507234725 | 37 | 301 | 5.0 | 10.0 | 0.00 | 0.01 | 0.00 | 84 | 1018.5 |
| 20260507232726 | 38 | 295 | 5.0 | 9.0 | 0.00 | 0.01 | 0.00 | 83 | 1018.2 |
| 20260507230725 | 38 | 295 | 4.0 | 6.0 | 0.00 | 0.01 | 0.00 | 82 | 1018.0 |
| 20260507223054 | 39 | 300 | 4.0 | 8.0 | 0.00 | 0.01 | 0.00 | 79 | 1017.6 |
| 20260507221054 | 39 | 295 | 5.0 | 8.0 | 0.00 | 0.01 | 0.00 | 77 | 1017.5 |
| 20260507215054 | 40 | 316 | 3.0 | 5.0 | 0.01 | 0.01 | 0.00 | 79 | 1017.4 |
| 20260507212724 | 40 | 319 | 4.0 | 6.0 | 0.01 | 0.01 | 0.00 | 80 | 1017.2 |
| 20260507210724 | 40 | 303 | 4.0 | 8.0 | 0.01 | 0.01 | 0.00 | 77 | 1017.1 |
| 20260507204724 | 40 | 288 | 4.0 | 7.0 | 0.00 | 0.00 | 0.00 | 83 | 1017.0 |
| 20260507201054 | 43 | 301 | 7.0 | 13.0 | 0.00 | 0.00 | 0.00 | 70 | 1017.0 |
| 20260507194725 | 43 | 314 | 6.0 | 10.0 | 0.00 | 0.00 | 0.00 | 69 | 1016.7 |
| 20260507185053 | 47 | 324 | 8.0 | 17.0 | 0.00 | 0.00 | 0.00 | 47 | 1015.5 |
| 20260507182724 | 48 | 327 | 9.0 | 16.0 | 0.00 | 0.00 | 0.00 | 43 | 1015.2 |
| 20260507175053 | 51 | 294 | 5.0 | 9.0 | 0.00 | 0.00 | 0.00 | 32 | 1014.4 |
| 20260507173052 | 51 | 242 | 5.0 | 10.0 | 0.00 | 0.00 | 0.00 | 29 | 1014.4 |
| 20260507171052 | 51 | 225 | 6.0 | 16.0 | 0.00 | 0.00 | 0.00 | 28 | 1014.4 |
| 20260507165053 | 51 | 135 | 3.0 | 5.0 | 0.00 | 0.00 | 0.00 | 28 | 1014.2 |
| 20260507162723 | 51 | 106 | 4.0 | 5.0 | 0.00 | 0.00 | 0.00 | 27 | 1014.2 |
| 20260507160723 | 52 | 114 | 4.0 | 7.0 | 0.00 | 0.00 | 0.00 | 26 | 1014.1 |
| 20260507154723 | 52 | 122 | 5.0 | 9.0 | 0.00 | 0.00 | 0.00 | 26 | 1014.2 |
| 20260507151053 | 54 | 168 | 3.0 | 5.0 | 0.00 | 0.00 | 0.00 | 25 | 1014.4 |
| 20260507142723 | 52 | 86 | 5.0 | 9.0 | 0.00 | 0.00 | 0.00 | 26 | 1014.6 |
| 20260507140723 | 52 | 98 | 7.0 | 11.0 | 0.00 | 0.00 | 0.00 | 26 | 1014.6 |
| 20260507132723 | 52 | 85 | 6.0 | 12.0 | 0.00 | 0.00 | 0.00 | 27 | 1014.6 |